WSSS

Singapore Changi Airport

Airport
ICAO code
WSSS
IATA Code
SIN
Summary
ICAO Region
APAC
ICAO Territory
Location

Changi, East Region

Serving
Singapore
Elevation
22 ft
Coordinates
1° 21' 24" N , 103° 59' 21" E
KCC
Airport LOS
Parallel Runway Operation
Metar
Observation
WSSS 032100Z VRB01KT 9999 FEW018 SCT150 BKN300 25/24 Q1008 NOSIG
Station
Singapore / Changi Airport
Date/Time
2022-10-03 21:00:00
Wind speed
01 kts
Lowest cloud amount
few clouds
Temperature
25°C
Dew point
24°C
Humidity
94%
QNH
1008 hPa
Weather condition
n/a

The only international airport in Singapore.

Climatology

Tropical Rainforest climate (Köppen climate classification Af) - almost no distinct seasons, average daily temperature around 27°C throughout the year. Extensive cloud cover and heavy rainfall prevent temperatures from rising much over 33°C. The diurnal temperature change is between 2°C and 5°C which is greater than the annual temperature range of 2°C. Rainfall is heavy and is usually convectional and in the afternoon.

SKYbrary Partners:

Safety knowledge contributed by: